[[{"header":{"parameterUnit":"m.s-1","parameterCategory":1,"la1":30.2991,"la2":30.254,"lo1":-89.0895,"lo2":-89.0444,"dy":0.0017,"dx":0.0017,"nx":28,"ny":28,"refTime":"2025-05-16T09:00:00:Z","depth":0,"parameterNumber":2,"parameterNumberName":"U-component_of_WINDS"},"data":[0,0,0,0,0,0,0,0,0,0,0,0,0,0,0,0,0,0,0,0,0,0,0,0,0,0,0,0,0,0,0,0,0,0,0,0,0,0,0,0,0,0,0,0,0,0,0,0,0,0,0,0,0,0,0,0,0,0,-0.3428,-0.3428,0,-0.3433,-0.3433,-0.3433,-0.3431,-0.3431,-0.3431,-0.3431,-0.3436,-0.3436,-0.3436,0,0,0,0,0,0,0,0,0,0,0,0,0,-0.3415,-0.3416,-0.3428,-0.3428,-0.3428,-0.3433,-0.3433,-0.3433,-0.3431,-0.3431,-0.3431,-0.3431,-0.3436,-0.3436,-0.3436,0,0,0,0,0,0,0,0,0,0,0,0,0,-0.3421,-0.3416,-0.3428,-0.3428,-0.3428,-0.3433,-0.3433,-0.3433,-0.3431,-0.3431,-0.3431,-0.3431,-0.3435,-0.3436,-0.3436,-0.3442,0,0,-0.3437,-0.3437,0,0,0,0,0,0,0,0,-0.342,-0.3421,-0.3428,-0.3428,-0.3428,-0.3431,-0.343,-0.3436,-0.3431,-0.343,-0.3431,-0.3431,-0.3434,-0.3435,-0.3436,-0.3442,-0.3442,-0.3437,-0.3437,-0.3438,-0.3438,0,0,0,0,0,0,0,-0.342,-0.3421,-0.343,-0.3428,-0.3428,-0.3427,-0.3427,-0.3431,-0.3433,-0.343,-0.343,-0.343,-0.3434,-0.3436,-0.3436,-0.3442,-0.3437,-0.3438,-0.3438,-0.3438,-0.3453,-0.3453,0,0,0,0,0,0,-0.342,-0.3421,-0.343,-0.343,-0.3424,-0.3427,-0.3428,-0.343,-0.3433,-0.3433,-0.3431,-0.343,-0.3435,-0.3436,-0.3436,-0.3443,-0.3438,-0.3438,-0.3438,-0.3453,-0.3453,-0.3453,0,0,0,0,0,0,-0.342,-0.3421,-0.3429,-0.3425,-0.3426,-0.3428,-0.343,-0.343,-0.3432,-0.3433,-0.3434,-0.3432,-0.3435,-0.3436,-0.344,-0.3443,-0.3438,-0.3438,-0.3452,-0.3453,-0.3453,-0.3456,0,0,0,0,0,0,-0.3419,-0.3421,-0.3423,-0.3425,-0.3427,-0.3434,-0.343,-0.3431,-0.3433,-0.3432,-0.3435,-0.3435,-0.3435,-0.344,-0.3441,-0.3443,-0.3439,-0.3452,-0.3452,-0.3453,-0.3456,-0.3456,-0.3457,0,0,0,0,0,-0.3419,-0.3424,-0.3423,-0.3424,-0.343,-0.3434,-0.3434,-0.3435,-0.3433,-0.3435,-0.3436,-0.3435,-0.3443,-0.344,-0.3441,-0.3444,-0.3452,-0.3452,-0.3453,-0.3455,-0.3456,-0.3457,0,0,0,0,0,0,-0.3421,-0.3424,-0.3423,-0.3429,-0.3431,-0.3433,-0.3436,-0.3436,-0.3438,-0.3438,-0.3438,-0.3438,-0.3443,-0.3444,-0.3441,-0.3449,-0.3447,-0.3448,-0.3448,-0.3449,-0.345,-0.3449,-0.3439,0,0,0,0,0,-0.3423,-0.3426,-0.3428,-0.3433,-0.3434,-0.3435,-0.3437,-0.3437,-0.3439,-0.344,-0.3441,-0.3443,-0.3446,-0.3448,-0.345,-0.3456,-0.3456,-0.3458,-0.3459,-0.3459,-0.346,-0.3462,-0.3463,-0.3454,-0.3454,-0.3454,0,0,-0.3425,-0.3427,-0.3429,-0.3433,-0.3435,-0.3438,-0.3436,-0.3439,-0.3442,-0.344,-0.3445,-0.3446,-0.3448,-0.3453,-0.3455,-0.3454,-0.3462,-0.346,-0.346,-0.346,-0.3463,-0.3463,-0.3464,-0.3455,-0.3454,-0.3454,0,0,-0.3431,-0.3433,-0.3437,-0.3439,-0.3442,-0.3442,-0.3443,-0.3445,-0.3446,-0.345,-0.3449,-0.3452,-0.3457,-0.3458,-0.346,-0.3466,-0.3465,-0.3467,-0.347,-0.3472,-0.3473,-0.3474,-0.3476,-0.3476,-0.3468,-0.3468,-0.3468,0,-0.3434,-0.3439,-0.3439,-0.3443,-0.3445,-0.3444,-0.3448,-0.3449,-0.3452,-0.3454,-0.3452,-0.3458,-0.346,-0.3465,-0.3466,-0.3467,-0.3468,-0.3467,-0.3473,-0.3474,-0.3474,-0.3476,-0.3477,-0.3468,-0.3468,-0.3468,-0.3468,0,-0.3442,-0.3446,-0.3449,-0.3452,-0.3454,-0.3458,-0.3458,-0.346,-0.346,-0.346,-0.3465,-0.3466,-0.3469,-0.347,-0.347,-0.3475,-0.3474,-0.3473,-0.3471,-0.3475,-0.3477,-0.3478,-0.3468,-0.3468,-0.3468,-0.3468,0,0,-0.345,-0.3453,-0.3454,-0.3455,-0.3458,-0.3461,-0.3464,-0.3467,-0.3468,-0.3471,-0.3473,-0.3477,-0.3476,-0.3478,-0.3478,-0.348,-0.3484,-0.3478,-0.3478,-0.3479,-0.3489,-0.349,-0.3491,-0.3484,-0.3484,-0.3484,-0.3489,0,-0.3456,-0.3462,-0.3463,-0.3468,-0.3471,-0.347,-0.3473,-0.3475,-0.3476,-0.3478,-0.3479,-0.3481,-0.348,-0.3481,-0.3483,-0.3483,-0.3486,-0.3483,-0.3486,-0.3486,-0.3485,-0.3492,-0.3493,-0.3497,-0.349,-0.349,-0.349,0,-0.3464,-0.3466,-0.3472,-0.3474,-0.3475,-0.3478,-0.348,-0.3483,-0.3485,-0.3485,-0.3487,-0.3486,-0.3489,-0.3487,-0.3491,-0.3489,-0.349,-0.3491,-0.3491,-0.3491,-0.3488,-0.3491,-0.3499,-0.3499,-0.3491,-0.3491,-0.3491,0,-0.3468,-0.3473,-0.3477,-0.3478,-0.3481,-0.3483,-0.3484,-0.3485,-0.3487,-0.3489,-0.349,-0.3492,-0.3494,-0.3495,-0.3495,-0.3494,-0.3499,-0.3497,-0.3499,-0.3499,-0.35,-0.35,-0.3508,-0.3502,-0.3502,-0.3502,-0.3502,0,-0.3475,-0.3478,-0.3479,-0.3482,-0.3485,-0.3486,-0.3489,-0.349,-0.3492,-0.3494,-0.3493,-0.3496,-0.3496,-0.3498,-0.3498,-0.3501,-0.3502,-0.3502,-0.3502,-0.3502,-0.3502,-0.3502,-0.3502,-0.3502,-0.3502,-0.3502,-0.3502,0,-0.348,-0.3481,-0.3485,-0.3487,-0.3488,-0.349,-0.3492,-0.3494,-0.3495,-0.3498,-0.3498,-0.3499,-0.3502,-0.3502,-0.3505,-0.3505,-0.3509,-0.3508,-0.3508,-0.3508,-0.351,-0.351,-0.3518,-0.3518,-0.3512,-0.3513,-0.3513,0,-0.3484,-0.3487,-0.3489,-0.3491,-0.3492,-0.3494,-0.3496,-0.3496,-0.3498,-0.35,-0.3502,-0.3504,-0.3506,-0.351,-0.3511,-0.3513,-0.3512,-0.3515,-0.3513,-0.3512,-0.3512,-0.3512,-0.3512,-0.3515,-0.3515,-0.3516,-0.3516,0,-0.3491,-0.3491,-0.3493,-0.3496,-0.3498,-0.35,-0.3501,-0.3503,-0.3503,-0.3505,-0.3507,-0.3509,-0.3512,-0.3514,-0.3516,-0.3517,-0.3516,-0.3516,-0.3517,-0.3517,-0.3516,-0.3516,-0.3509,-0.3516,-0.3516,-0.3516,-0.3516,-0.3516,-0.3495,-0.3497,-0.3499,-0.3502,-0.3503,-0.3505,-0.3507,-0.3508,-0.351,-0.3512,-0.3512,-0.3515,-0.3516,-0.3519,-0.352,-0.3522,-0.3521,-0.3522,-0.3522,-0.3522,-0.3522,-0.3516,-0.3522,-0.3522,-0.3522,-0.3522,-0.3522,0,-0.3501,-0.3502,-0.3505,-0.3507,-0.3509,-0.3509,-0.351,-0.3512,-0.3514,-0.3516,-0.3518,-0.3521,-0.3523,-0.3524,-0.3526,-0.3527,-0.3527,-0.3528,-0.3527,-0.3527,-0.3523,-0.3522,-0.3528,-0.3528,-0.3528,-0.3528,-0.3528,-0.3528,-0.3505,-0.3508,-0.3509,-0.3513,-0.3514,-0.3516,-0.3517,-0.3519,-0.352,-0.3523,-0.3525,-0.3526,-0.3527,-0.3529,-0.3531,-0.3531,-0.3531,-0.3532,-0.3532,-0.3528,-0.3528,-0.3527,-0.3526,-0.3533,-0.3533,-0.3536,-0.3536,-0.3536]},{"header":{"parameterUnit":"m.s-1","parameterCategory":1,"la1":30.2991,"la2":30.254,"lo1":-89.0895,"lo2":-89.0444,"dy":0.0017,"dx":0.0017,"nx":28,"ny":28,"refTime":"2025-05-16T09:00:00:Z","depth":0,"parameterNumber":3,"parameterNumberName":"V-component_of_WINDS"},"data":[0,0,0,0,0,0,0,0,0,0,0,0,0,0,0,0,0,0,0,0,0,0,0,0,0,0,0,0,0,0,0,0,0,0,0,0,0,0,0,0,0,0,0,0,0,0,0,0,0,0,0,0,0,0,0,0,0,0,3.7079,3.7079,0,3.7005,3.7004,3.7003,3.6963,3.6963,3.6963,3.6963,3.6881,3.6878,3.6876,0,0,0,0,0,0,0,0,0,0,0,0,0,3.7183,3.7182,3.708,3.7079,3.7078,3.7005,3.7004,3.7003,3.6963,3.6963,3.6963,3.6963,3.6881,3.6879,3.6876,0,0,0,0,0,0,0,0,0,0,0,0,0,3.7126,3.7181,3.708,3.7049,3.7046,3.7005,3.7004,3.7003,3.6963,3.6963,3.6963,3.6963,3.6882,3.6879,3.6876,3.6858,0,0,3.6866,3.6865,0,0,0,0,0,0,0,0,3.713,3.7123,3.7055,3.7051,3.7047,3.6994,3.701,3.6954,3.6963,3.6994,3.6963,3.6963,3.6918,3.6912,3.6898,3.6854,3.6851,3.6866,3.6864,3.6862,3.6862,0,0,0,0,0,0,0,3.7134,3.7125,3.705,3.7054,3.7049,3.7038,3.703,3.7,3.6957,3.6992,3.6989,3.6981,3.6916,3.6901,3.6895,3.6849,3.6866,3.6863,3.6861,3.686,3.679,3.679,0,0,0,0,0,0,3.7143,3.7129,3.7052,3.7048,3.7089,3.7036,3.7027,3.7011,3.6958,3.695,3.6981,3.6979,3.6906,3.6899,3.6892,3.687,3.6862,3.6859,3.6858,3.679,3.679,3.679,0,0,0,0,0,0,3.7146,3.7137,3.7055,3.7088,3.7076,3.7035,3.7017,3.7009,3.6995,3.695,3.6941,3.6974,3.6906,3.6897,3.6868,3.6866,3.6858,3.6855,3.679,3.679,3.679,3.6823,0,0,0,0,0,0,3.7149,3.7138,3.7131,3.7088,3.7075,3.7033,3.7016,3.7008,3.699,3.6987,3.6941,3.6933,3.6905,3.6873,3.6865,3.6862,3.6853,3.679,3.679,3.679,3.6822,3.6825,3.6827,0,0,0,0,0,3.7153,3.7142,3.7131,3.7122,3.7066,3.7033,3.7026,3.6996,3.699,3.6983,3.6954,3.6934,3.6868,3.687,3.6861,3.6857,3.679,3.679,3.679,3.6821,3.6824,3.6827,0,0,0,0,0,0,3.7183,3.7135,3.7123,3.7098,3.7071,3.7027,3.7016,3.6999,3.6971,3.6969,3.6932,3.6921,3.6896,3.6873,3.6877,3.6838,3.6827,3.6825,3.6854,3.6856,3.6858,3.6864,3.685,0,0,0,0,0,3.7187,3.7166,3.7125,3.7107,3.7094,3.7058,3.7042,3.7022,3.6991,3.6978,3.6948,3.6917,3.6889,3.6871,3.6843,3.6819,3.6809,3.6812,3.6814,3.6816,3.6815,3.6802,3.6804,3.6791,3.6791,3.6791,0,0,3.7195,3.7166,3.7154,3.7112,3.7088,3.7067,3.7048,3.7025,3.7008,3.6974,3.6946,3.6923,3.6885,3.686,3.6847,3.684,3.6817,3.6816,3.6818,3.6816,3.6803,3.6804,3.6805,3.6791,3.6791,3.6791,0,0,3.7198,3.7174,3.7157,3.7135,3.7101,3.7077,3.7073,3.7033,3.7017,3.6989,3.6964,3.6942,3.6895,3.6871,3.6852,3.685,3.6831,3.6842,3.6853,3.6841,3.6842,3.6843,3.6843,3.6844,3.6841,3.6841,3.6841,0,3.7211,3.7179,3.715,3.713,3.7113,3.7084,3.7067,3.7046,3.7003,3.6991,3.6985,3.6927,3.69,3.6869,3.6869,3.6855,3.6849,3.6846,3.6845,3.6845,3.6845,3.6845,3.6845,3.6842,3.6842,3.6842,3.6842,0,3.7197,3.7175,3.7166,3.7129,3.711,3.7091,3.706,3.7044,3.7027,3.7004,3.6976,3.6944,3.691,3.6901,3.6882,3.6868,3.6865,3.6852,3.684,3.6849,3.6848,3.6848,3.6845,3.6844,3.6843,3.6843,0,0,3.7214,3.7165,3.7162,3.7146,3.7108,3.7089,3.707,3.704,3.7027,3.6999,3.6982,3.6945,3.6934,3.6913,3.6891,3.6881,3.6884,3.6869,3.6868,3.6874,3.6868,3.6878,3.6878,3.6871,3.6871,3.6871,3.6871,0,3.7212,3.7178,3.7154,3.7128,3.7109,3.7083,3.7066,3.704,3.7019,3.6998,3.6974,3.6949,3.6936,3.6924,3.6912,3.6886,3.6882,3.6885,3.6854,3.6853,3.6865,3.6878,3.6888,3.6889,3.6871,3.6871,3.6871,0,3.7205,3.7181,3.7155,3.7122,3.7112,3.7098,3.7069,3.705,3.7021,3.7006,3.6985,3.6964,3.6942,3.6933,3.6902,3.6905,3.6891,3.6877,3.6876,3.6872,3.6862,3.6874,3.6889,3.689,3.687,3.687,3.687,0,3.7222,3.7183,3.7163,3.715,3.711,3.7101,3.7083,3.7054,3.7039,3.7013,3.7003,3.6974,3.6959,3.6937,3.6909,3.6905,3.6882,3.687,3.6869,3.687,3.6864,3.6865,3.6878,3.6855,3.6855,3.6855,3.6855,0,3.7222,3.7207,3.7171,3.7158,3.7142,3.7114,3.7097,3.7077,3.7052,3.7035,3.701,3.6995,3.6959,3.6938,3.6916,3.6895,3.6888,3.6875,3.6869,3.6878,3.6879,3.6867,3.6867,3.6855,3.6855,3.6855,3.6855,0,3.7237,3.7212,3.7189,3.7155,3.7146,3.7135,3.7105,3.7092,3.7071,3.705,3.7043,3.701,3.6985,3.6956,3.692,3.6905,3.6887,3.6878,3.6897,3.6894,3.6895,3.6896,3.6901,3.69,3.6878,3.6878,3.6879,0,3.7238,3.7227,3.7193,3.7181,3.7166,3.7146,3.7132,3.7104,3.7089,3.7057,3.7048,3.7022,3.7,3.6962,3.6934,3.6907,3.6898,3.6901,3.6893,3.6903,3.6899,3.69,3.6899,3.6903,3.6904,3.6904,3.6904,0,3.7244,3.7234,3.7214,3.7192,3.7175,3.7155,3.7134,3.7125,3.7093,3.7078,3.7054,3.7038,3.7004,3.6979,3.695,3.693,3.6912,3.6908,3.6906,3.6914,3.6926,3.6921,3.6904,3.6907,3.6907,3.6907,3.6906,3.6906,3.7253,3.7243,3.7219,3.7198,3.718,3.7162,3.7149,3.7128,3.7109,3.7081,3.7066,3.7043,3.7016,3.6975,3.6957,3.6938,3.6932,3.6929,3.6928,3.6928,3.6932,3.693,3.6933,3.6932,3.6932,3.6932,3.6932,0,3.7259,3.7243,3.7225,3.7198,3.7182,3.717,3.7146,3.7134,3.7115,3.7092,3.7072,3.7046,3.7023,3.6994,3.6969,3.6959,3.695,3.6953,3.6954,3.695,3.6938,3.6943,3.6961,3.6961,3.6961,3.6961,3.6961,3.6961,3.726,3.7243,3.723,3.7204,3.7187,3.7167,3.7155,3.7138,3.712,3.7093,3.7075,3.7057,3.7033,3.7006,3.6984,3.6976,3.6968,3.6974,3.6964,3.6953,3.695,3.6948,3.6952,3.6972,3.6972,3.6977,3.6977,3.6977]}]]